Temp
15 16 16 16 16 16 16 16 16 16 16 17 17 17 17 17 16 16 17 17 18 18 18 19 19 19 20 20 19 19 19 19 19 18 18 18 18 18 18 18 17 17 17 17 16 16 16 16 16 16 16 16 15 15 15 15 15 15 14 14 14 14 14
16 16 16 16 16 17 17 16 16 16 16 17 17 17 16 16 14 16 18 18 18 18 18 19 19 19 19 20 19 19 19 19 19 18 18 18 18 18 18 18 17 17 17 17 17 17 17 17 17 17 16 16 16 15 15 15 15 15 15 14 14 14 14
16 16 16 16 16 16 17 17 16 16 16 16 17 16 15 15 14 16 18 18 18 18 18 19 19 19 19 19 20 20 19 19 19 19 19 18 18 18 18 18 17 17 17 17 17 17 17 17 16 16 16 16 16 15 15 15 15 15 15 14 14 14 14
16 16 16 16 16 16 17 17 16 16 17 17 17 17 16 16 15 16 17 18 18 19 19 19 19 20 20 20 20 20 19 19 19 19 19 18 18 18 18 18 17 17 17 17 18 17 17 17 16 16 16 16 16 16 15 15 15 15 14 14 14 14 14
16 16 16 16 16 16 16 17 17 16 17 17 17 17 17 17 16 16 17 17 19 20 20 20 20 20 20 20 20 20 20 19 19 19 19 18 18 18 18 18 18 17 17 17 17 17 17 17 16 16 16 16 16 16 16 15 15 15 15 14 14 15 15
17 17 17 16 16 16 16 17 17 17 17 17 17 16 17 18 17 17 17 17 19 21 20 20 20 20 20 20 20 20 20 20 19 19 19 19 19 19 19 18 18 18 17 17 17 17 17 17 17 17 17 17 17 16 16 16 15 15 15 15 15 15 15
16 17 17 16 16 16 16 17 17 17 17 17 17 16 17 18 17 18 18 18 19 20 20 21 21 20 20 20 20 20 20 20 19 19 19 19 19 19 19 18 18 18 18 18 17 17 17 17 18 17 17 17 17 17 16 16 16 15 15 15 15 15 15
15 16 17 17 16 16 17 17 17 17 17 17 17 17 17 18 18 18 18 17 19 20 20 21 21 20 20 20 20 20 19 19 20 19 19 18 18 18 18 18 18 18 18 18 17 17 17 18 18 18 18 18 17 17 17 16 16 15 15 15 15 15 15
15 15 16 16 16 16 17 17 17 17 18 17 17 18 18 18 18 18 17 17 19 20 20 20 20 20 20 20 19 20 19 20 20 19 19 18 18 18 18 18 18 18 18 17 17 18 18 18 18 18 18 18 18 17 17 17 16 16 15 15 15 15 15
13 13 15 16 16 16 16 17 17 17 17 18 18 18 18 17 18 19 18 18 19 20 20 20 20 20 20 19 19 20 20 20 19 19 19 19 19 19 18 18 18 18 17 17 17 18 18 18 18 18 18 18 18 18 17 17 17 16 16 15 15 15 15
12 14 15 16 16 16 16 17 17 17 17 18 18 18 18 18 18 18 19 19 19 20 20 20 20 20 19 19 19 19 19 19 19 19 19 19 19 19 19 18 18 18 18 18 18 18 18 18 18 18 18 18 18 18 17 17 17 17 16 16 16 16 16
12 14 15 16 16 16 16 17 17 17 17 17 18 18 18 18 18 18 19 19 19 19 20 20 20 20 19 19 19 19 19 19 19 19 19 19 19 19 18 18 18 18 18 18 18 18 17 18 18 18 18 18 18 18 18 17 17 17 17 16 16 16 16
12 13 13 14 15 16 16 17 17 17 17 17 18 18 18 18 18 18 19 19 19 19 19 19 20 19 19 19 19 19 19 19 19 19 19 19 18 18 18 18 18 18 18 18 18 17 17 17 17 17 17 18 18 18 18 18 17 17 17 17 17 16 16
11 12 13 14 14 15 16 16 17 17 18 18 17 18 18 19 19 19 19 19 19 19 19 19 19 19 19 19 18 19 19 19 19 19 19 19 18 18 17 17 17 17 18 17 17 17 17 17 17 17 18 18 18 18 18 18 18 18 18 17 17 17 17
10 12 13 13 14 15 15 15 16 17 17 18 18 18 18 19 19 19 19 18 18 18 19 19 18 18 18 18 18 18 18 18 19 19 18 18 18 18 17 17 17 17 17 17 17 17 17 17 17 17 18 18 18 18 18 18 18 18 18 18 18 18 17
10 11 12 12 13 14 14 15 16 16 17 17 18 18 18 19 19 19 19 18 17 17 18 18 17 17 17 17 18 18 17 18 18 18 17 17 17 17 17 17 17 17 17 17 17 17 17 17 17 17 18 18 18 18 18 18 18 18 18 18 18 18 18
8 10 11 12 12 13 13 15 16 16 16 17 18 18 18 18 19 18 18 18 17 17 18 17 17 17 17 17 17 17 17 17 17 17 17 17 17 17 17 17 17 17 17 17 17 17 17 17 17 17 18 18 18 18 18 18 18 18 18 18 19 18 18
7 9 10 11 11 11 13 15 15 16 16 16 17 18 18 18 19 19 18 17 17 17 17 17 17 17 17 17 17 17 17 17 17 17 16 16 17 17 17 17 17 17 17 17 16 16 17 17 17 17 17 17 18 18 18 18 18 18 18 19 19 19 19
6 8 9 9 10 11 13 14 15 15 15 15 16 16 17 16 16 17 17 16 16 17 17 16 16 16 16 16 17 16 16 17 17 16 16 16 16 16 16 16 17 17 16 16 16 16 16 16 16 16 16 17 17 18 18 18 18 18 19 19 19 19 19
6 7 8 9 10 12 14 14 14 14 14 15 15 15 14 14 14 15 17 16 16 16 16 15 15 16 16 16 16 16 16 16 17 16 16 16 16 16 16 16 16 16 16 16 16 16 16 16 16 16 16 16 17 17 17 18 18 19 19 19 19 19 19
5 6 8 10 12 12 13 12 12 12 13 13 14 14 13 13 14 15 15 16 16 15 15 15 15 15 15 15 15 15 15 16 16 16 15 15 15 15 15 15 15 16 15 15 15 16 16 16 16 16 16 16 16 17 17 17 18 18 19 19 19 19 19
5 5 6 9 11 10 10 10 11 12 12 13 14 14 12 12 14 14 14 15 15 15 15 15 15 15 15 15 14 15 15 15 15 15 15 15 15 15 15 15 15 15 15 15 15 15 15 15 16 16 16 16 17 17 17 17 17 18 18 19 19 19 19
4 5 5 7 8 8 8 9 11 12 12 12 14 13 10 10 11 12 13 14 14 14 15 14 14 15 15 14 13 13 14 14 14 15 15 15 15 15 15 15 16 16 15 15 15 15 15 15 15 16 16 16 17 17 17 17 17 18 18 18 18 18 19
4 5 5 6 7 7 7 7 9 11 12 13 13 10 7 8 9 10 11 12 12 13 14 14 13 13 13 13 12 12 13 13 13 14 14 15 15 15 15 15 15 15 15 15 15 15 15 15 15 16 16 16 17 17 17 17 18 18 18 18 18 18 18
4 4 5 6 6 6 6 6 8 11 12 12 10 7 6 7 8 8 10 12 11 12 13 13 13 12 11 12 11 12 12 13 13 14 14 14 14 14 14 14 15 15 15 15 15 15 16 16 16 16 16 17 17 17 17 17 18 18 18 18 18 18 18
4 4 4 5 5 6 6 6 7 10 11 8 6 5 6 7 7 8 9 10 11 11 11 12 12 11 11 11 12 12 12 13 14 14 14 14 14 14 14 14 14 14 15 15 15 15 16 16 16 16 16 17 17 17 17 17 17 18 18 18 18 18 18
3 4 4 3 3 4 6 6 6 7 7 4 4 5 6 6 8 8 8 9 10 11 11 11 11 11 11 11 12 12 13 13 14 14 14 14 14 14 14 14 14 14 15 15 15 15 15 16 16 16 16 17 17 17 17 17 17 17 18 18 18 18 18
2 3 2 2 2 3 4 4 4 4 3 2 3 5 5 6 8 8 8 8 9 10 10 11 11 11 11 12 12 12 13 13 13 13 13 13 13 13 13 14 14 14 14 15 15 15 15 15 15 16 16 16 17 17 17 17 17 17 18 18 18 18 18
1 2 2 2 2 2 2 2 2 3 2 2 3 4 5 6 7 7 8 8 9 9 10 10 10 11 11 12 12 12 12 13 13 13 13 13 13 13 13 13 14 14 14 14 15 15 15 15 15 15 16 16 16 17 17 17 17 17 18 18 18 18 18
1 1 2 2 1 2 2 1 2 3 3 3 3 4 4 5 6 6 7 8 8 8 9 9 10 10 11 11 12 12 12 13 13 13 13 13 13 13 13 13 13 14 14 14 15 15 15 15 15 15 15 16 16 17 17 17 17 17 17 17 18 18 18
1 1 2 1 1 1 2 2 2 3 3 3 3 4 4 4 5 5 6 7 7 8 8 9 9 9 10 11 11 12 12 12 12 12 12 12 12 12 12 13 13 13 13 14 14 15 15 15 15 15 15 16 16 16 17 17 17 17 17 17 17 18 18
0 1 1 1 1 1 2 2 2 2 2 3 3 4 4 4 5 5 6 6 7 7 8 8 9 9 10 10 11 11 11 11 11 11 11 11 11 12 12 12 13 13 13 13 14 14 15 15 15 15 15 16 16 16 16 16 17 17 17 17 17 17 17
0 0 1 1 1 1 2 2 2 2 1 2 2 3 3 4 5 5 6 6 6 7 7 8 8 9 9 10 10 10 10 11 11 11 11 11 11 12 12 12 12 13 13 13 13 14 14 15 15 15 15 16 16 16 16 16 17 17 17 17 17 17 17
-1 -0 0 0 0 0 1 1 1 1 1 1 2 3 3 4 5 5 6 6 6 6 7 7 8 8 9 9 10 10 10 10 11 11 11 11 11 11 12 12 12 13 13 13 13 14 14 14 15 15 15 15 16 16 16 16 16 17 17 17 17 17 17
-1 -1 -0 -0 0 0 1 1 1 1 1 2 3 3 4 4 5 6 6 6 6 6 6 7 8 8 8 9 9 9 10 10 10 10 11 11 11 11 11 12 12 13 13 13 13 14 14 14 14 15 15 15 15 16 16 16 16 16 16 17 17 17 17
-1 -0 0 0 1 1 1 1 1 2 2 2 3 4 4 5 5 5 6 6 6 6 6 7 7 8 8 8 8 9 9 9 9 10 10 10 10 10 11 11 12 12 13 13 13 13 14 14 14 14 15 15 15 15 16 16 16 16 16 16 16 16 17
-1 -0 0 1 1 2 2 2 2 2 2 2 3 4 4 4 5 5 5 6 6 6 6 6 6 7 7 7 8 8 8 8 9 9 9 9 9 10 10 11 11 11 12 13 13 13 13 13 14 14 14 14 15 15 15 15 15 16 16 16 16 16 16
Height
3061 3064 3067 3071 3073 3073 3076 3080 3078 3078 3084 3088 3088 3089 3090 3093 3094 3092 3090 3087 3087 3091 3091 3093 3096 3096 3096 3099 3102 3104 3102 3102 3105 3108 3111 3115 3118 3121 3125 3129 3132 3134 3136 3138 3140 3142 3144 3146 3147 3149 3152 3153 3155 3157 3159 3162 3165 3166 3169 3171 3174 3177 3180
3057 3062 3066 3069 3070 3071 3071 3071 3074 3081 3087 3087 3087 3088 3088 3091 3092 3089 3086 3085 3087 3088 3087 3088 3092 3092 3093 3095 3098 3101 3100 3098 3100 3103 3107 3111 3114 3118 3122 3126 3129 3131 3134 3136 3138 3140 3141 3143 3146 3148 3150 3151 3153 3155 3158 3161 3163 3164 3166 3168 3172 3175 3177
3054 3060 3063 3064 3066 3067 3067 3069 3074 3080 3081 3080 3082 3084 3084 3087 3089 3084 3081 3081 3081 3081 3080 3083 3085 3086 3088 3091 3094 3098 3099 3097 3097 3100 3103 3106 3111 3115 3119 3122 3126 3128 3131 3133 3135 3138 3139 3141 3144 3146 3149 3150 3151 3153 3156 3159 3161 3163 3164 3166 3169 3172 3174
3052 3055 3056 3055 3057 3063 3066 3068 3071 3074 3075 3076 3078 3079 3079 3081 3082 3081 3079 3077 3075 3074 3074 3076 3078 3081 3084 3087 3089 3093 3096 3097 3098 3099 3101 3104 3109 3113 3116 3119 3122 3125 3129 3131 3133 3136 3138 3140 3142 3144 3147 3148 3149 3151 3154 3158 3159 3160 3162 3163 3166 3169 3172
3045 3045 3045 3046 3050 3056 3060 3063 3065 3068 3072 3074 3076 3077 3076 3076 3077 3077 3076 3074 3070 3069 3070 3070 3072 3076 3079 3082 3085 3088 3092 3094 3096 3098 3100 3102 3107 3111 3114 3117 3121 3124 3127 3129 3132 3134 3136 3139 3140 3142 3144 3145 3146 3149 3152 3156 3157 3158 3159 3160 3163 3166 3169
3037 3037 3040 3045 3049 3053 3056 3058 3060 3063 3067 3070 3072 3073 3073 3074 3074 3072 3073 3071 3067 3067 3067 3066 3068 3071 3074 3079 3082 3085 3088 3090 3092 3096 3099 3100 3104 3108 3111 3115 3119 3122 3125 3127 3129 3131 3134 3136 3138 3140 3141 3143 3145 3147 3150 3153 3155 3155 3156 3158 3161 3164 3167
3034 3036 3040 3043 3048 3053 3055 3057 3058 3060 3063 3064 3066 3067 3069 3071 3072 3070 3071 3069 3066 3065 3062 3060 3063 3068 3072 3077 3080 3083 3086 3088 3088 3092 3097 3099 3101 3106 3110 3113 3117 3120 3123 3125 3127 3129 3131 3133 3136 3138 3139 3141 3143 3145 3148 3150 3152 3153 3155 3157 3159 3162 3164
3032 3035 3038 3040 3045 3050 3053 3053 3055 3056 3058 3060 3063 3066 3068 3069 3069 3069 3070 3069 3066 3063 3058 3056 3061 3067 3071 3075 3078 3080 3084 3086 3087 3090 3094 3096 3100 3105 3109 3112 3115 3118 3120 3123 3125 3127 3129 3131 3133 3135 3137 3139 3142 3144 3146 3147 3149 3151 3153 3155 3158 3160 3162
3030 3031 3033 3035 3038 3043 3046 3048 3051 3053 3055 3059 3063 3065 3066 3066 3067 3068 3068 3068 3066 3064 3061 3060 3063 3067 3071 3074 3076 3078 3081 3083 3085 3088 3092 3095 3098 3102 3106 3109 3113 3116 3118 3121 3123 3126 3128 3130 3132 3134 3136 3138 3140 3142 3143 3145 3147 3150 3152 3154 3156 3158 3160
3027 3027 3028 3029 3031 3036 3042 3045 3048 3051 3053 3056 3059 3062 3063 3063 3064 3066 3066 3066 3065 3066 3066 3065 3066 3068 3070 3072 3074 3076 3079 3080 3082 3086 3089 3093 3096 3099 3102 3106 3110 3113 3116 3119 3122 3125 3128 3130 3132 3134 3135 3137 3139 3140 3141 3142 3145 3148 3150 3152 3154 3156 3158
3025 3024 3025 3027 3029 3033 3038 3042 3045 3049 3051 3053 3056 3059 3059 3060 3062 3064 3064 3065 3066 3066 3066 3066 3068 3069 3069 3070 3072 3074 3077 3079 3081 3084 3088 3091 3093 3095 3099 3103 3108 3111 3114 3117 3121 3124 3126 3128 3130 3132 3133 3135 3136 3138 3140 3140 3142 3145 3148 3150 3152 3154 3156
3024 3023 3023 3025 3027 3030 3034 3039 3043 3046 3049 3051 3053 3055 3056 3059 3061 3061 3063 3065 3065 3065 3065 3066 3067 3068 3068 3069 3071 3073 3075 3078 3081 3085 3088 3090 3091 3093 3097 3101 3105 3109 3112 3115 3118 3121 3124 3126 3128 3130 3131 3133 3135 3137 3138 3140 3141 3143 3146 3148 3149 3152 3154
3021 3021 3021 3024 3027 3029 3032 3036 3039 3043 3046 3048 3049 3052 3055 3058 3059 3060 3062 3063 3064 3066 3066 3066 3066 3066 3066 3068 3069 3072 3075 3078 3081 3084 3085 3088 3091 3093 3096 3100 3104 3108 3111 3114 3116 3119 3122 3124 3126 3128 3130 3131 3133 3135 3137 3138 3140 3142 3144 3146 3147 3149 3151
3018 3020 3021 3023 3027 3028 3030 3033 3037 3040 3044 3046 3047 3051 3055 3057 3058 3060 3061 3062 3064 3065 3064 3064 3065 3065 3065 3067 3069 3073 3076 3079 3081 3083 3085 3087 3091 3094 3097 3101 3104 3108 3110 3113 3116 3118 3121 3123 3125 3127 3128 3130 3132 3134 3135 3137 3138 3140 3142 3144 3145 3147 3149
3017 3019 3020 3022 3025 3027 3028 3032 3035 3037 3040 3044 3046 3049 3053 3055 3057 3059 3060 3061 3063 3062 3061 3063 3065 3064 3065 3069 3071 3074 3077 3079 3081 3083 3085 3088 3091 3095 3099 3102 3105 3108 3110 3112 3115 3118 3120 3122 3124 3126 3127 3129 3131 3132 3134 3135 3136 3138 3139 3141 3143 3144 3146
3016 3018 3021 3023 3025 3026 3027 3030 3032 3034 3038 3041 3043 3047 3050 3053 3056 3057 3058 3059 3060 3060 3060 3062 3065 3065 3066 3069 3071 3074 3076 3078 3081 3084 3087 3090 3093 3096 3099 3102 3104 3107 3109 3112 3114 3117 3119 3121 3123 3125 3126 3128 3129 3131 3132 3133 3135 3136 3137 3139 3140 3142 3144
3018 3020 3024 3025 3025 3026 3026 3027 3030 3034 3037 3039 3042 3046 3049 3051 3053 3055 3056 3057 3058 3059 3060 3062 3065 3066 3067 3069 3072 3074 3077 3080 3082 3085 3089 3092 3095 3097 3100 3101 3104 3106 3109 3112 3114 3116 3118 3119 3121 3123 3124 3126 3128 3130 3131 3132 3134 3135 3136 3137 3138 3140 3142
3020 3020 3023 3025 3026 3026 3024 3025 3030 3034 3036 3038 3040 3044 3048 3052 3055 3055 3055 3057 3058 3057 3059 3062 3064 3066 3068 3070 3072 3074 3077 3079 3081 3084 3088 3090 3093 3096 3098 3100 3103 3106 3108 3111 3113 3114 3116 3117 3119 3121 3122 3124 3126 3128 3129 3131 3132 3133 3134 3135 3136 3138 3140
3020 3018 3021 3026 3026 3024 3023 3027 3030 3033 3036 3038 3037 3038 3042 3046 3048 3050 3052 3056 3057 3056 3059 3062 3063 3065 3068 3069 3071 3073 3076 3078 3080 3083 3086 3089 3091 3093 3095 3099 3102 3104 3106 3108 3110 3111 3113 3115 3117 3119 3121 3123 3124 3126 3127 3128 3130 3131 3132 3134 3135 3136 3138
3021 3019 3023 3026 3024 3022 3024 3027 3028 3029 3033 3036 3035 3034 3036 3036 3039 3044 3049 3054 3056 3055 3057 3060 3062 3063 3064 3065 3068 3073 3075 3078 3080 3082 3084 3087 3090 3092 3095 3098 3101 3103 3105 3106 3108 3110 3112 3113 3115 3117 3119 3121 3123 3124 3126 3126 3128 3129 3130 3132 3133 3135 3136
3023 3023 3023 3023 3021 3020 3022 3025 3025 3027 3031 3034 3034 3035 3036 3037 3041 3047 3051 3053 3054 3054 3055 3059 3061 3061 3061 3063 3068 3073 3075 3077 3079 3081 3083 3086 3090 3093 3095 3098 3100 3102 3104 3106 3107 3109 3111 3113 3114 3116 3117 3119 3120 3122 3124 3125 3126 3127 3128 3130 3131 3133 3134
3025 3025 3023 3022 3021 3020 3020 3022 3025 3027 3031 3033 3033 3033 3036 3038 3042 3046 3049 3050 3052 3054 3055 3057 3059 3060 3061 3065 3069 3071 3073 3075 3078 3081 3083 3086 3089 3092 3095 3098 3100 3101 3103 3105 3106 3108 3110 3112 3114 3115 3116 3117 3118 3120 3121 3122 3124 3125 3127 3128 3129 3130 3132
3026 3026 3025 3024 3022 3021 3020 3021 3023 3025 3028 3030 3031 3033 3037 3039 3041 3044 3046 3046 3048 3051 3053 3055 3058 3060 3062 3065 3067 3069 3071 3074 3077 3079 3082 3086 3089 3092 3095 3097 3099 3100 3103 3104 3105 3108 3110 3111 3113 3114 3115 3116 3117 3118 3119 3121 3122 3123 3125 3126 3127 3128 3130
3027 3027 3027 3026 3024 3022 3021 3021 3021 3024 3027 3027 3028 3035 3041 3041 3040 3042 3043 3042 3044 3048 3051 3053 3056 3058 3060 3062 3065 3068 3070 3073 3076 3079 3082 3084 3088 3091 3094 3096 3097 3099 3101 3102 3104 3106 3108 3109 3111 3112 3113 3115 3116 3117 3118 3119 3120 3122 3123 3125 3126 3126 3127
3027 3027 3027 3026 3025 3023 3020 3020 3021 3023 3025 3026 3031 3038 3042 3041 3040 3041 3041 3041 3043 3045 3048 3050 3051 3054 3056 3059 3062 3066 3069 3073 3076 3079 3081 3084 3087 3090 3092 3094 3095 3097 3099 3101 3102 3103 3105 3106 3108 3109 3111 3112 3114 3114 3116 3117 3118 3120 3121 3122 3123 3124 3125
3026 3027 3027 3027 3027 3024 3020 3020 3021 3022 3025 3030 3036 3040 3041 3039 3040 3040 3040 3041 3043 3044 3045 3048 3050 3052 3055 3059 3062 3066 3069 3073 3075 3078 3081 3083 3086 3088 3089 3091 3093 3096 3097 3098 3099 3100 3102 3104 3105 3106 3108 3109 3111 3112 3113 3114 3116 3117 3118 3120 3121 3122 3123
3026 3027 3028 3030 3031 3028 3024 3023 3025 3025 3028 3035 3039 3039 3039 3038 3038 3038 3039 3040 3042 3044 3046 3049 3051 3053 3055 3059 3063 3067 3070 3072 3075 3077 3080 3082 3084 3086 3087 3089 3092 3094 3094 3095 3096 3098 3100 3101 3102 3103 3104 3106 3107 3109 3110 3112 3113 3114 3116 3117 3119 3119 3120
3028 3029 3031 3033 3034 3033 3030 3030 3033 3033 3034 3037 3038 3039 3039 3038 3037 3038 3039 3040 3042 3045 3048 3050 3053 3055 3056 3059 3063 3066 3069 3072 3075 3077 3079 3081 3083 3084 3085 3087 3090 3091 3091 3092 3094 3096 3097 3099 3099 3100 3101 3102 3104 3106 3108 3109 3110 3111 3112 3114 3116 3117 3118
3031 3031 3033 3034 3034 3034 3034 3035 3036 3037 3037 3037 3037 3038 3039 3039 3038 3038 3039 3041 3043 3046 3048 3051 3053 3055 3057 3059 3062 3065 3068 3071 3073 3075 3077 3078 3080 3081 3082 3085 3087 3088 3087 3089 3091 3093 3094 3096 3096 3097 3098 3099 3101 3103 3104 3106 3107 3108 3109 3111 3113 3114 3115
3031 3033 3034 3035 3035 3035 3036 3036 3035 3035 3036 3036 3037 3037 3038 3038 3039 3039 3040 3042 3044 3046 3048 3051 3053 3055 3057 3059 3061 3064 3067 3069 3072 3074 3075 3076 3077 3078 3079 3081 3083 3084 3085 3086 3088 3090 3091 3092 3093 3094 3095 3096 3098 3099 3101 3102 3103 3105 3106 3107 3109 3110 3112
3031 3033 3033 3033 3033 3034 3036 3036 3036 3035 3035 3036 3036 3037 3038 3038 3038 3040 3041 3043 3044 3046 3048 3050 3052 3053 3056 3058 3061 3064 3066 3069 3070 3072 3073 3074 3075 3076 3077 3078 3080 3081 3082 3083 3085 3087 3088 3089 3090 3090 3092 3093 3094 3096 3097 3098 3100 3101 3102 3103 3105 3106 3108
3030 3031 3033 3033 3033 3034 3036 3037 3037 3037 3036 3035 3035 3036 3037 3037 3038 3039 3041 3042 3044 3046 3048 3049 3051 3053 3055 3058 3061 3063 3065 3067 3068 3070 3072 3073 3074 3074 3075 3076 3077 3078 3079 3080 3082 3083 3084 3085 3086 3087 3088 3089 3091 3092 3093 3095 3096 3097 3098 3099 3100 3102 3104
3028 3030 3033 3033 3031 3031 3033 3035 3035 3035 3033 3032 3033 3034 3035 3036 3037 3039 3041 3042 3044 3046 3048 3049 3051 3053 3055 3057 3059 3060 3062 3064 3066 3068 3070 3071 3072 3073 3074 3074 3075 3076 3077 3078 3079 3080 3080 3081 3082 3083 3084 3085 3087 3088 3090 3091 3093 3094 3095 3096 3097 3098 3099
3027 3028 3030 3030 3028 3028 3030 3031 3032 3032 3031 3030 3031 3032 3033 3034 3036 3038 3040 3042 3044 3046 3048 3049 3051 3052 3054 3055 3056 3058 3060 3062 3064 3066 3068 3069 3070 3070 3071 3072 3073 3073 3074 3075 3076 3077 3077 3077 3078 3079 3080 3081 3083 3085 3087 3088 3090 3091 3092 3093 3094 3095 3096
3026 3026 3027 3028 3027 3026 3027 3029 3030 3030 3030 3030 3031 3031 3031 3032 3034 3035 3037 3040 3043 3045 3046 3047 3049 3050 3052 3053 3055 3056 3058 3060 3062 3064 3066 3067 3067 3068 3068 3069 3070 3070 3072 3073 3074 3074 3074 3074 3075 3076 3077 3078 3080 3082 3084 3085 3087 3088 3089 3090 3090 3092 3093
3023 3023 3024 3025 3023 3021 3022 3026 3028 3029 3029 3029 3030 3031 3031 3032 3033 3034 3036 3038 3040 3042 3043 3045 3046 3048 3049 3051 3053 3055 3057 3058 3060 3061 3063 3064 3065 3065 3066 3066 3067 3067 3068 3070 3071 3072 3072 3072 3073 3073 3075 3076 3077 3079 3081 3082 3084 3085 3085 3086 3087 3089 3090
3020 3020 3021 3022 3020 3018 3019 3021 3024 3027 3028 3028 3028 3029 3031 3032 3033 3034 3036 3037 3038 3039 3041 3043 3045 3047 3048 3050 3052 3054 3055 3057 3058 3059 3061 3062 3063 3063 3064 3064 3064 3064 3065 3066 3068 3068 3069 3070 3071 3071 3072 3073 3074 3076 3078 3080 3080 3081 3081 3082 3083 3085 3087
Wind_Speed
34 32 35 35 31 29 32 37 37 35 35 28 12 7 12 11 4 9 20 27 30 26 23 25 28 31 30 25 26 32 34 38 43 44 43 39 37 35 30 26 24 25 27 27 25 24 25 25 24 22 21 20 19 18 18 21 24 25 25 24 24 23 24
39 33 32 36 35 29 31 40 39 30 28 30 20 7 9 9 4 9 21 25 27 27 26 28 30 32 34 33 30 29 33 42 45 45 44 41 39 36 30 25 23 25 28 28 27 26 24 24 22 21 23 23 21 18 18 20 24 26 25 25 24 24 25
38 36 33 37 40 34 30 35 37 30 23 25 24 12 5 7 4 6 19 25 26 29 33 34 33 33 34 37 37 32 32 43 48 44 43 43 40 35 31 27 25 26 28 28 27 26 25 24 24 25 25 25 23 19 18 19 22 24 25 25 25 25 26
36 37 38 41 43 40 33 30 34 37 28 21 26 22 11 7 4 4 11 15 19 30 37 35 32 33 34 35 39 38 35 39 46 45 44 45 41 34 31 27 24 27 28 25 24 25 26 25 25 26 26 24 23 19 18 19 21 24 26 27 27 27 27
40 40 43 44 44 43 40 34 34 38 32 23 24 26 23 15 4 2 6 5 13 24 30 33 32 31 34 34 34 38 39 38 40 42 42 43 38 31 27 23 22 27 27 23 21 23 25 24 24 26 25 23 22 20 19 19 21 24 26 27 28 27 27
39 45 45 42 42 44 44 38 33 37 36 27 18 15 25 27 14 7 5 4 12 19 20 28 31 28 32 34 31 33 39 39 38 38 39 40 38 31 26 23 22 25 25 23 23 23 25 25 24 25 24 23 23 22 20 20 21 23 24 25 27 27 27
29 38 44 41 40 42 44 38 32 35 39 35 22 11 18 28 23 19 13 7 9 11 14 26 30 26 29 31 28 29 34 37 38 37 37 40 38 31 26 25 22 21 23 24 24 24 25 25 24 25 25 23 23 23 22 22 22 23 23 24 25 26 27
29 28 37 42 41 39 42 41 36 33 36 39 29 17 18 24 24 21 12 5 6 9 3 23 29 27 28 25 24 26 27 32 37 36 37 41 39 31 27 26 22 20 23 25 26 26 25 22 22 24 25 24 24 24 24 23 23 23 23 23 23 24 25
21 19 22 34 43 42 40 42 41 36 33 36 32 23 20 20 23 24 10 3 8 4 9 20 25 26 26 18 19 24 23 30 37 34 33 36 35 30 27 26 24 24 26 27 28 28 25 21 22 25 26 24 25 25 25 24 23 23 23 23 23 24 23
7 7 8 23 42 45 39 39 41 39 32 32 34 29 22 16 20 28 20 7 10 7 10 20 23 22 21 15 16 22 23 28 33 32 32 31 29 29 29 28 28 27 27 28 29 28 25 22 23 25 24 22 23 24 24 24 24 23 24 24 24 24 23
6 2 4 19 42 45 36 34 37 40 37 32 35 32 25 19 18 26 27 15 13 14 11 14 16 16 19 18 20 24 25 28 31 32 34 32 29 31 32 31 31 28 26 26 26 26 24 21 23 23 20 19 20 22 23 23 24 24 24 25 25 25 24
14 8 3 10 35 44 40 35 33 39 42 36 34 34 28 22 16 21 26 18 15 17 14 12 11 12 18 21 24 26 27 29 33 33 34 34 33 35 34 33 32 27 25 24 21 21 23 21 21 19 16 15 17 19 20 21 22 24 25 26 27 26 25
18 19 8 2 13 27 37 40 33 35 42 42 37 33 30 26 18 18 22 17 15 16 13 13 14 15 20 24 23 23 25 29 31 27 31 38 39 38 36 35 32 27 24 22 18 19 22 22 20 18 14 14 15 16 17 18 19 22 24 26 28 27 27
15 19 15 8 6 8 22 35 36 32 37 44 42 32 28 27 21 19 22 17 13 15 16 17 19 20 22 23 19 18 23 27 25 20 27 38 39 38 38 36 32 26 22 21 20 19 21 23 23 21 17 16 16 16 16 16 18 20 22 25 27 28 27
13 19 19 10 9 5 8 18 28 26 27 39 44 36 29 28 22 19 23 18 14 17 21 21 23 25 26 26 24 22 22 22 21 24 31 37 37 37 38 36 31 26 21 21 22 23 23 25 26 24 21 19 18 17 17 16 16 18 19 21 24 26 27
9 21 20 9 8 9 6 8 21 23 18 26 41 40 31 28 25 21 23 23 25 24 24 26 30 32 34 37 36 31 27 25 27 32 35 37 37 36 34 32 30 27 24 24 24 25 26 24 24 25 24 22 21 19 18 16 15 16 16 16 18 20 23
8 11 16 12 10 8 10 12 22 22 8 10 32 43 34 26 24 24 23 25 27 25 25 29 33 35 38 40 37 31 28 28 30 31 30 30 30 29 28 27 27 27 27 27 26 27 27 25 24 25 25 24 23 21 19 18 16 15 14 13 12 14 16
10 1 8 11 8 5 8 11 16 13 1 2 17 34 36 27 22 25 25 24 26 28 27 28 33 35 37 37 33 28 27 30 34 33 27 24 21 22 23 22 22 24 25 25 24 24 24 23 24 25 25 25 25 23 22 20 18 16 14 12 11 10 11
13 7 0 4 4 5 9 9 9 6 1 3 8 17 26 22 14 21 30 25 24 29 28 25 29 31 32 32 29 26 25 28 33 31 25 23 20 19 21 20 21 22 22 22 23 22 21 21 21 21 21 23 24 25 24 22 20 18 16 14 12 11 11
11 8 1 6 6 6 8 8 5 4 2 1 6 12 14 11 9 20 34 32 26 30 30 25 26 29 30 30 28 25 23 27 32 29 23 22 22 20 20 20 21 23 21 21 23 23 23 24 24 23 21 20 21 22 23 23 21 20 18 16 15 13 13
10 12 5 9 8 6 4 2 3 1 3 5 1 12 20 18 19 26 32 31 28 29 29 27 27 28 31 32 29 27 24 24 28 26 21 21 21 19 19 18 17 17 16 17 19 20 21 22 23 24 23 23 23 21 21 22 21 20 20 18 17 16 14
10 15 8 6 6 4 2 7 4 6 4 4 7 10 21 25 26 28 28 27 27 26 27 28 28 28 31 32 29 28 25 22 22 21 19 20 19 17 18 19 17 15 15 15 16 17 17 18 19 20 21 23 25 25 25 24 22 21 21 20 19 18 17
10 12 8 2 2 4 6 9 7 10 5 3 11 9 14 23 27 27 29 30 27 26 25 25 28 30 31 30 25 24 24 22 21 20 18 19 19 16 17 20 21 20 19 18 18 17 17 18 18 19 19 19 20 22 24 25 24 24 23 22 21 20 19
10 9 8 5 6 6 11 16 6 7 7 6 11 6 9 15 22 26 30 34 32 29 27 28 30 30 30 28 23 22 24 22 20 19 17 17 18 17 17 20 23 23 21 19 19 20 21 22 23 23 22 20 19 20 21 22 23 23 23 23 23 22 21
8 9 9 7 7 8 14 17 8 7 11 8 9 9 7 8 15 19 26 33 34 32 31 33 33 30 28 29 26 23 24 23 21 21 20 18 18 18 19 22 24 24 24 23 22 21 23 26 27 27 26 24 22 21 20 21 22 22 23 24 25 25 25
12 10 12 9 7 10 14 15 10 5 13 11 15 13 9 9 10 14 20 28 31 31 31 32 32 28 26 26 24 22 23 25 25 24 22 21 20 18 20 22 23 23 25 26 25 23 23 25 27 29 29 27 24 23 23 22 22 23 24 25 25 26 26
11 9 8 6 6 10 14 15 11 7 11 11 12 11 10 12 16 16 17 22 27 30 31 30 29 27 25 23 22 20 20 22 23 22 20 19 18 17 18 21 21 22 24 26 26 24 23 24 25 27 29 28 28 27 25 24 23 23 24 24 24 25 26
6 6 7 6 6 10 14 15 10 16 17 11 3 7 9 13 19 19 16 19 23 25 28 29 29 27 24 22 22 21 19 20 20 19 18 18 18 19 21 20 20 21 23 24 24 24 23 24 25 25 27 28 29 29 27 26 25 24 24 23 23 24 25
7 4 8 7 7 8 12 13 7 11 13 7 2 8 8 11 16 17 16 17 18 19 20 23 24 25 23 22 22 21 20 20 20 20 21 23 24 25 26 24 23 23 24 23 22 22 23 23 24 24 25 26 28 28 29 29 28 27 26 25 25 24 25
6 4 6 3 7 3 4 9 7 2 1 1 2 6 9 9 12 15 16 16 16 15 14 15 17 19 20 21 22 21 21 22 23 25 26 26 26 26 27 26 26 27 27 26 23 22 22 23 24 24 24 24 25 27 29 30 30 30 29 28 28 28 27
8 4 6 2 5 5 5 7 9 8 10 11 10 8 6 8 11 13 15 16 15 14 13 13 13 14 16 18 19 20 21 21 21 22 22 22 21 22 23 24 25 26 27 27 25 23 22 23 24 24 23 22 23 25 27 29 30 31 31 31 31 30 30
11 8 6 6 7 8 9 11 10 9 12 16 18 16 13 10 12 12 13 15 15 13 13 13 12 13 15 17 17 17 17 16 16 17 16 15 15 16 16 17 19 20 21 22 22 22 22 24 25 25 24 24 22 23 24 26 28 30 31 32 31 31 31
15 14 9 8 12 14 13 10 8 7 10 15 18 21 22 18 15 15 15 14 13 12 11 11 12 13 14 16 16 17 16 16 16 15 14 12 11 12 12 13 14 14 15 17 18 20 22 24 25 25 25 25 24 23 23 24 26 28 29 29 30 29 29
16 14 12 11 16 17 14 11 9 9 12 17 19 22 24 24 21 18 16 15 12 10 9 9 10 12 12 13 15 15 14 14 15 15 13 10 8 9 10 11 12 13 13 13 15 17 21 23 24 25 26 26 26 25 23 24 25 26 27 28 28 28 28
19 18 16 16 20 21 18 16 15 14 18 24 26 27 27 28 26 22 20 18 15 11 10 10 11 11 12 12 13 13 12 12 12 13 11 9 10 10 10 11 12 14 14 13 14 16 19 21 22 24 25 26 26 25 24 23 24 24 26 28 28 28 28
26 26 23 22 25 28 28 25 23 24 26 29 31 32 31 31 29 27 25 23 20 17 15 14 13 13 13 13 14 13 12 11 12 12 11 12 14 15 15 15 15 16 16 16 16 16 17 18 19 21 23 24 25 24 22 22 22 23 25 28 28 28 27
31 32 30 29 30 34 35 33 32 32 33 34 36 37 35 34 32 30 30 30 28 26 23 21 19 18 17 18 18 17 16 15 15 15 16 18 19 20 20 20 20 20 20 19 19 19 18 17 17 18 19 21 21 21 19 19 21 23 25 27 28 27 26
Wind_Direction
214 214 209 204 205 202 196 200 210 212 210 214 220 195 198 201 216 215 213 225 233 238 246 238 231 228 228 228 213 208 215 217 212 208 210 216 221 229 237 236 234 229 220 214 209 208 208 204 204 207 205 203 200 198 201 203 204 205 208 213 216 214 211
211 210 208 205 208 207 195 197 207 207 206 218 225 203 186 197 225 222 215 223 224 222 230 230 227 230 228 221 213 212 216 214 210 208 210 216 224 230 233 230 227 224 221 218 213 210 210 208 208 211 210 206 202 199 200 204 205 205 206 209 212 213 212
209 206 206 204 208 212 205 201 202 200 201 211 214 207 190 195 208 220 215 220 220 216 220 224 223 224 224 220 215 214 212 204 202 207 212 216 222 227 227 226 221 217 219 219 215 210 208 209 211 215 216 212 205 199 200 206 208 207 208 209 211 212 212
206 206 205 202 205 208 209 205 197 200 210 210 205 209 216 205 196 216 217 217 219 221 224 225 222 217 216 218 216 213 210 204 203 208 213 214 217 222 224 223 216 210 212 214 212 209 207 208 210 213 216 213 206 199 199 206 209 208 209 209 210 212 212
198 204 205 202 202 200 205 207 193 193 207 210 205 213 223 228 240 208 210 227 227 229 233 230 223 214 210 212 216 212 207 208 211 212 215 217 217 218 222 222 213 206 205 205 202 202 205 207 207 207 209 209 206 200 197 204 209 209 210 210 211 213 213
197 202 206 204 202 199 203 209 198 191 197 197 192 206 219 225 242 241 219 262 242 238 245 235 222 211 206 206 211 211 204 206 213 214 217 220 216 214 219 218 209 201 200 199 196 198 201 203 202 202 203 204 202 196 193 199 208 210 211 212 213 214 214
215 206 205 204 203 200 203 210 206 197 196 196 194 190 202 213 230 244 251 269 260 271 261 229 213 200 198 201 206 210 203 204 212 212 213 215 213 213 217 213 207 202 197 196 198 200 202 204 203 199 198 196 194 190 190 197 205 208 211 214 215 216 216
242 223 205 200 199 199 202 209 211 203 197 199 203 203 196 201 216 233 253 264 262 328 286 203 196 185 187 196 203 206 203 204 211 213 210 210 210 210 211 209 208 206 198 196 201 203 203 205 207 203 197 194 193 192 191 196 203 207 211 215 218 220 219
242 239 207 190 191 197 203 207 210 210 203 198 202 210 206 203 211 218 232 255 235 334 86 159 172 172 179 186 192 197 199 202 209 214 207 204 205 206 206 206 205 205 202 201 203 205 204 205 207 205 200 196 197 195 193 196 201 206 210 215 220 223 224
217 240 221 187 184 193 203 205 207 211 210 198 196 207 215 205 202 212 222 237 218 204 120 138 149 159 173 178 183 190 193 197 206 208 201 199 206 210 209 208 204 202 204 204 203 204 205 206 204 203 201 200 201 201 199 198 200 204 208 213 218 222 225
250 292 279 206 188 186 198 206 205 207 212 207 195 198 214 210 191 202 216 217 197 193 177 159 154 161 174 175 179 186 189 192 193 192 192 198 207 212 211 207 201 199 202 202 200 202 208 210 207 205 206 206 207 208 205 201 201 204 207 212 216 219 223
247 234 319 203 186 184 192 203 205 204 208 214 204 195 205 211 191 195 210 208 186 186 194 198 191 189 191 184 181 190 195 194 190 192 199 203 203 205 205 202 199 199 200 196 194 203 213 215 212 212 215 212 210 214 212 207 207 206 207 211 216 218 221
235 228 252 293 183 183 189 198 207 203 201 212 215 203 200 208 206 200 202 195 181 183 192 192 178 178 190 185 178 185 190 190 190 195 202 201 198 198 198 197 198 199 198 194 192 204 213 213 211 214 217 211 208 212 211 209 210 210 209 213 217 220 220
245 229 226 254 260 185 181 194 205 206 200 207 216 213 201 205 212 208 199 190 177 184 191 187 172 167 173 170 165 171 177 184 189 183 185 191 192 192 193 195 197 197 196 198 202 209 214 215 216 219 220 213 210 212 210 208 209 210 211 214 218 222 223
261 221 210 246 269 216 169 189 202 209 204 202 211 218 209 202 203 199 192 177 149 161 174 167 155 149 141 133 134 144 151 162 171 167 173 182 183 184 188 193 196 197 198 204 212 215 216 219 221 222 222 217 213 215 216 212 209 210 213 213 216 222 225
287 215 214 274 279 229 241 213 196 200 203 200 207 214 213 203 196 188 177 152 127 136 152 147 137 134 130 125 127 133 135 141 155 161 166 173 177 180 185 192 197 200 203 209 213 215 216 221 224 223 221 217 214 215 216 211 205 205 211 213 213 218 224
329 206 218 269 292 264 266 233 194 188 199 209 202 207 214 210 193 182 169 149 136 140 149 145 138 134 134 135 135 135 131 131 141 151 158 164 171 176 180 189 197 199 203 209 213 216 220 226 228 222 217 215 214 212 210 207 202 200 205 214 218 219 222
336 344 229 260 296 286 237 206 177 168 100 39 179 196 211 216 205 193 176 150 142 150 148 139 137 137 137 140 142 138 131 128 131 136 143 148 156 170 178 185 191 193 198 203 206 212 218 222 222 217 213 212 212 209 208 208 207 205 206 214 227 233 230
326 358 102 234 286 267 220 189 153 147 177 69 122 170 194 202 202 189 175 153 139 147 146 135 135 140 140 141 144 142 135 138 140 137 138 140 143 158 170 175 178 179 180 185 186 188 191 194 198 200 202 205 205 206 208 210 211 212 212 214 225 239 245
338 0 88 197 242 248 204 181 181 190 195 87 97 109 133 139 118 146 162 162 148 141 141 136 135 143 145 140 140 142 142 150 157 155 153 152 150 154 157 159 167 172 176 185 187 186 185 183 182 182 185 191 197 202 208 211 214 218 221 222 224 233 246
4 351 306 214 225 230 171 77 337 211 29 349 123 89 81 97 122 135 148 160 156 143 141 144 143 148 152 143 139 148 155 161 168 170 168 163 163 167 168 168 173 178 186 196 199 199 199 195 193 192 190 192 194 198 204 211 216 221 227 231 231 232 241
351 353 334 217 227 272 334 348 302 184 86 19 187 127 80 91 116 125 133 146 155 150 146 150 154 156 154 146 145 155 163 168 173 178 179 173 169 172 178 185 194 197 195 197 201 206 207 206 205 207 207 207 204 202 203 207 212 218 225 232 236 237 239
323 346 344 317 2 357 344 327 263 193 122 102 180 154 67 73 92 109 123 130 141 151 149 150 159 162 157 150 151 161 168 170 175 181 185 183 180 179 181 187 197 203 203 204 209 213 215 216 214 215 221 226 224 219 215 212 213 217 222 228 235 240 240
311 319 318 348 17 354 334 335 316 177 155 169 174 139 55 68 86 101 118 121 127 146 157 155 155 157 160 160 160 167 170 170 172 176 183 189 188 187 186 187 194 201 206 213 218 218 220 223 222 223 227 230 230 231 230 226 224 224 226 229 233 237 240
299 328 337 351 358 329 326 343 2 158 166 148 117 94 80 90 91 103 122 126 130 141 154 159 155 152 161 169 168 169 172 173 177 179 183 192 195 192 194 195 197 202 209 216 222 222 221 222 223 225 228 227 225 227 230 231 231 231 231 231 231 234 238
273 315 341 347 341 320 317 336 354 166 162 118 87 91 109 127 126 127 131 134 139 142 148 158 161 159 167 173 171 170 174 179 187 190 191 198 205 207 211 211 209 210 213 218 223 224 222 222 223 223 224 223 222 223 225 227 230 231 232 232 233 234 237
280 307 348 8 353 325 317 330 359 83 112 86 83 112 139 157 159 153 142 141 146 150 154 161 166 169 175 178 177 181 186 189 197 202 204 211 220 227 231 228 224 222 223 224 227 227 222 221 223 224 223 221 221 222 224 225 228 231 233 233 235 237 239
358 20 55 52 6 349 346 349 29 80 76 46 55 148 160 174 170 163 156 152 151 155 163 168 173 178 183 184 185 191 199 206 212 217 222 233 244 250 249 244 238 237 236 231 228 228 225 223 224 226 226 224 223 223 224 225 228 232 236 237 237 238 241
11 69 96 60 18 19 15 2 23 97 89 58 133 167 171 187 183 172 164 163 163 163 168 174 181 187 193 198 200 202 208 218 228 238 247 255 260 259 255 250 246 246 246 241 232 228 227 226 227 228 229 229 228 225 225 226 227 230 236 240 240 240 241
326 202 155 23 338 330 9 349 328 258 196 347 243 190 178 187 195 182 167 168 171 169 173 183 189 193 200 207 214 220 227 235 242 251 258 260 259 258 255 251 248 249 252 251 243 234 230 229 230 230 231 231 231 229 228 228 227 229 233 238 241 241 241
300 228 183 239 290 264 262 284 288 285 282 283 281 259 208 194 204 191 172 169 169 166 173 186 192 197 203 209 218 227 232 237 241 245 250 253 253 255 256 254 251 252 255 256 251 243 237 233 232 234 234 233 233 232 230 230 230 231 233 237 239 241 240
291 274 227 224 248 251 254 266 279 294 289 276 270 267 257 230 210 197 182 175 170 164 167 177 182 186 189 193 202 208 211 217 224 229 234 240 244 247 251 251 251 254 257 258 255 251 243 236 234 235 236 235 234 233 232 231 231 232 235 237 239 240 240
294 284 270 262 260 248 236 243 264 276 278 273 266 263 262 253 231 213 200 189 180 174 174 177 178 177 178 182 187 193 197 204 211 218 225 233 237 239 241 241 243 247 252 254 254 252 246 239 236 236 237 238 236 235 234 233 232 233 235 237 238 240 240
296 287 283 283 276 260 237 223 230 241 256 265 264 261 260 259 252 237 220 209 203 197 195 197 190 182 183 187 189 195 202 206 210 215 224 239 255 256 249 243 239 240 243 245 247 249 246 242 240 239 238 239 240 238 236 235 234 235 235 235 236 237 238
278 272 265 260 260 259 247 231 226 232 244 252 254 254 254 254 253 248 239 232 231 232 230 226 213 200 197 201 204 209 215 221 225 228 234 256 281 285 280 272 263 255 249 243 241 246 247 245 243 242 241 240 241 242 241 239 239 239 239 237 236 236 237
265 261 256 249 246 245 242 236 230 230 235 244 248 248 249 250 250 249 247 245 244 244 244 241 234 226 222 221 222 225 231 240 249 252 260 280 293 296 296 297 291 279 266 253 247 249 254 253 249 247 246 245 244 243 243 243 243 243 242 240 238 236 237
261 258 254 250 247 244 243 242 240 237 238 243 247 247 248 251 253 253 254 253 250 247 246 245 246 246 246 243 238 238 244 255 264 271 278 287 294 296 297 298 297 292 284 273 263 259 261 262 255 249 247 247 246 245 244 244 243 243 242 241 240 239 239